DW9919 Gulf Shores AL US current weather conditions

sailwx.info

Wind from 214 at 2 knots gusting 6

Air temperature 32.8° C
Dewpoint 25.3° C

Last reported at 2019-Jul-16 20:00 UTC.
Time now 2019-Jul-16 20:29 UTC

Location: N 30°17' W 087°31'.
View on Google Maps.

See reports from other nearby stations

  
Tides and Currents Weather Stations Pressure Air Temp Water Temp Dewpoint Dewpoint Depression Visibility Wind Speed Wind Dir Waves Ship Positions
date/time (UTC)wind fromknots sea level pressurealtimeterstation pressurevisibilityair tempwater tempwave heightnotes
2019-Jul-16 20:00 214 2 gusting 6 32.8
2019-Jul-16 19:45 221 3 gusting 6 33.3
2019-Jul-16 19:30 206 1 gusting 6 33.3
2019-Jul-16 19:15 230 2 gusting 6 33.3
2019-Jul-16 19:00 195 1 gusting 5 33.3
2019-Jul-16 18:45 255 1 gusting 5 33.3
2019-Jul-16 18:30 214 2 gusting 6 32.8
2019-Jul-16 18:16 215 1 gusting 6 33.3
2019-Jul-16 18:00 229 0 gusting 6 33.3
2019-Jul-16 17:45 218 1 gusting 6 33.3
2019-Jul-16 17:30 138 3 gusting 6 33.3
2019-Jul-16 17:15 189 2 gusting 6 33.3
2019-Jul-16 17:00 245 1 gusting 5 32.8
2019-Jul-16 16:45 181 0 gusting 5 32.8
2019-Jul-16 16:30 247 1 gusting 6 32.8
2019-Jul-16 16:15 205 2 gusting 7 32.8
2019-Jul-16 16:01 179 0 gusting 6 33.3
2019-Jul-16 15:46 231 2 gusting 6 32.8
2019-Jul-16 15:31 218 0 gusting 5 33.3
2019-Jul-16 15:16 132 1 gusting 5 32.8
2019-Jul-16 15:02 224 1 gusting 6 32.2
2019-Jul-16 14:47 154 1 gusting 4 32.8
2019-Jul-16 14:31 135 0 gusting 5 31.7
2019-Jul-16 14:16 231 1 gusting 5 32.2
2019-Jul-16 14:01 216 1 gusting 4 31.1
2019-Jul-16 13:46 193 1 gusting 4 31.1
2019-Jul-16 13:32 200 31.7
2019-Jul-16 13:16 223 0 gusting 5 30.6
2019-Jul-16 13:01 214 0 gusting 5 30.0
2019-Jul-16 12:46 225 29.4
2019-Jul-16 12:31 245 1 gusting 6 28.9
2019-Jul-16 12:16 228 0 gusting 3 28.9
2019-Jul-16 12:01 220 28.9
2019-Jul-16 11:45
2019-Jul-16 11:30
2019-Jul-16 11:15
2019-Jul-16 11:00 219 2 gusting 5 28.3
2019-Jul-16 10:45 207 0 gusting 6 27.8
2019-Jul-16 10:30 247 2 gusting 6 27.8
2019-Jul-16 10:15 224 0 gusting 6 27.8
2019-Jul-16 10:02 221 1 gusting 6 27.8
2019-Jul-16 09:46 222 1 gusting 6 27.8
2019-Jul-16 09:32 153 2 gusting 5 27.8
2019-Jul-16 09:17 196 1 gusting 6 27.8
2019-Jul-16 09:01 174 2 gusting 6 27.8
2019-Jul-16 08:46 226 3 gusting 7 27.8
2019-Jul-16 08:32 243 1 gusting 6 28.3
2019-Jul-16 08:16 231 3 gusting 6 27.8
2019-Jul-16 08:01 219 1 gusting 7 27.8
2019-Jul-16 07:46 239 1 gusting 6 28.3
2019-Jul-16 07:31 222 1 gusting 6 28.3
2019-Jul-16 07:16 212 1 gusting 6 28.3
2019-Jul-16 07:01 239 0 gusting 6 28.3
2019-Jul-16 06:46 200 3 gusting 8 28.3
2019-Jul-16 06:31 152 2 gusting 7 28.3
2019-Jul-16 06:16 190 2 gusting 7 28.3
2019-Jul-16 06:01 233 3 gusting 6 28.3
2019-Jul-16 05:46 207 2 gusting 7 28.3
2019-Jul-16 05:31 217 2 gusting 6 28.3
2019-Jul-16 05:16 165 2 gusting 5 28.3
2019-Jul-16 05:01 176 1 gusting 7 28.3
2019-Jul-16 04:46 206 0 gusting 7 28.3
2019-Jul-16 04:31 190 1 gusting 7 28.3
2019-Jul-16 04:15 167 3 gusting 6 28.3
2019-Jul-16 04:01 177 2 gusting 8 28.3
2019-Jul-16 03:46 152 1 gusting 6 28.3
2019-Jul-16 03:32 213 2 gusting 7 28.3
2019-Jul-16 03:15 150 1 gusting 8 28.3
2019-Jul-16 03:01 212 3 gusting 7 28.3
2019-Jul-16 02:45 138 3 gusting 8 28.3
2019-Jul-16 02:31 141 3 gusting 7 28.3
2019-Jul-16 02:16 160 5 gusting 11 28.9
2019-Jul-16 02:00 150 4 gusting 8 28.9
2019-Jul-16 01:45 192 2 gusting 7 28.9
2019-Jul-16 01:30 131 3 gusting 7 28.9
2019-Jul-16 01:15 131 2 gusting 7 28.9
2019-Jul-16 01:00 160 2 gusting 8 28.9
2019-Jul-16 00:45 164 4 gusting 7 28.9
2019-Jul-16 00:30 155 2 gusting 7 29.4
2019-Jul-16 00:15 171 3 gusting 6 30.0
2019-Jul-16 00:00 146 3 gusting 6 30.6
2019-Jul-15 23:45 154 1 gusting 6 30.6
2019-Jul-15 23:30 159 1 gusting 6 31.1
2019-Jul-15 23:15 181 0 gusting 7 31.7
2019-Jul-15 23:01 167 1 gusting 7 31.7
2019-Jul-15 22:45 210 3 gusting 7 32.2
2019-Jul-15 22:30 204 3 gusting 8 32.2
2019-Jul-15 22:15 129 2 gusting 7 31.1
2019-Jul-15 22:00 159 4 gusting 8 31.7
2019-Jul-15 21:45 199 3 gusting 9 31.7
2019-Jul-15 21:30 235 4 gusting 9 32.2
2019-Jul-15 21:15 206 4 gusting 10 32.8
2019-Jul-15 21:00 150 3 gusting 8 32.8
2019-Jul-15 20:45 198 4 gusting 8 32.2
2019-Jul-15 20:30 212 3 gusting 7 33.3
2019-Jul-15 20:15 182 4 gusting 8 33.3
2019-Jul-15 20:00 125 6 gusting 10 33.3
2019-Jul-15 19:45 141 4 gusting 10 33.3
2019-Jul-15 19:30 201 5 gusting 10 32.8
2019-Jul-15 19:15 153 5 gusting 10 32.8
2019-Jul-15 19:01 221 4 gusting 9 33.3
2019-Jul-15 18:45 162 5 gusting 9 33.3
2019-Jul-15 18:30 155 6 gusting 10 33.3
2019-Jul-15 18:17 251 6 gusting 12 33.3
2019-Jul-15 18:01 186 3 gusting 10 33.3
2019-Jul-15 17:46 153 5 gusting 10 33.3
2019-Jul-15 17:32 141 5 gusting 9 33.3
2019-Jul-15 17:16 233 5 gusting 10 32.8
2019-Jul-15 17:00 153 5 gusting 11 32.8
2019-Jul-15 16:47 170 5 gusting 9 32.8
2019-Jul-15 16:30 160 4 gusting 9 32.8
2019-Jul-15 16:16 171 6 gusting 9 32.8
2019-Jul-15 16:01 212 3 gusting 11 32.8
2019-Jul-15 15:46 128 5 gusting 10 32.2
2019-Jul-15 15:31 236 6 gusting 10 32.2
2019-Jul-15 15:16 186 6 gusting 13 31.7
2019-Jul-15 15:01 207 6 gusting 10 30.6
2019-Jul-15 14:46 164 4 gusting 10 31.7
2019-Jul-15 14:30 200 3 gusting 8 30.6
2019-Jul-15 14:15 166 5 gusting 11 31.7
2019-Jul-15 14:01 256 3 gusting 10 31.1
2019-Jul-15 13:45 155 6 gusting 12 30.6
2019-Jul-15 13:30 144 6 gusting 11 30.6
2019-Jul-15 13:15 097 5 gusting 11 30.0
2019-Jul-15 13:00 136 6 gusting 13 29.4
2019-Jul-15 12:47 133 7 gusting 15 29.4
2019-Jul-15 12:32 205 7 gusting 12 28.9
2019-Jul-15 12:17 108 4 gusting 12 28.9
2019-Jul-15 12:01 173 8 gusting 14 28.9
2019-Jul-15 11:47 160 6 gusting 11 28.3
2019-Jul-15 11:31
2019-Jul-15 11:16
2019-Jul-15 11:01
2019-Jul-15 10:45
2019-Jul-15 10:30 085 4 gusting 13 28.9
2019-Jul-15 10:16 155 7 gusting 11 28.3
2019-Jul-15 10:01 138 4 gusting 11 28.3
2019-Jul-15 09:45 116 5 gusting 11 28.3
2019-Jul-15 09:30 115 4 gusting 11 28.3
2019-Jul-15 09:15 156 4 gusting 10 28.3
2019-Jul-15 09:00 177 5 gusting 12 28.3
2019-Jul-15 08:45 162 6 gusting 13 28.3
2019-Jul-15 08:30 149 5 gusting 11 28.3
2019-Jul-15 08:15 157 6 gusting 11 28.3
2019-Jul-15 07:45 151 6 gusting 13 28.3
2019-Jul-15 07:30 060 6 gusting 14 28.3
2019-Jul-15 07:15 144 4 gusting 11 28.3
2019-Jul-15 07:00 213 6 gusting 13 28.3
2019-Jul-15 06:45 148 6 gusting 13 28.3
2019-Jul-15 06:30 159 4 gusting 12 28.3
2019-Jul-15 06:15 160 5 gusting 13 28.3
2019-Jul-15 06:01 120 6 gusting 13 28.3
2019-Jul-15 05:47 171 5 gusting 12 28.3
2019-Jul-15 05:32 115 5 gusting 13 28.3
2019-Jul-15 05:17 289 6 gusting 14 28.3
2019-Jul-15 05:02 165 4 gusting 12 28.3
2019-Jul-15 04:46 105 2 gusting 7 28.3
2019-Jul-15 04:31 284 1 gusting 10 28.3
2019-Jul-15 04:17 190 3 gusting 8 28.3
2019-Jul-15 04:01 148 3 gusting 13 28.3
2019-Jul-15 03:46 180 3 gusting 8 28.3
2019-Jul-15 03:31 124 3 gusting 12 28.3
2019-Jul-15 03:16 105 3 gusting 10 28.3
2019-Jul-15 03:01 161 5 gusting 11 28.9
2019-Jul-15 02:46 115 2 gusting 10 28.9
2019-Jul-15 02:31 148 1 gusting 9 28.3
2019-Jul-15 02:16 134 2 gusting 8 28.9
2019-Jul-15 02:00 148 2 gusting 13 28.9
2019-Jul-15 01:46 193 2 gusting 8 28.9
2019-Jul-15 01:31 138 2 gusting 6 28.9
2019-Jul-15 01:16 104 0 gusting 8 28.9
2019-Jul-15 01:01 160 0 gusting 7 28.9
2019-Jul-15 00:45 138 3 gusting 10 28.9
2019-Jul-15 00:30 142 1 gusting 6 28.9
2019-Jul-15 00:15 120 2 gusting 11 28.9
2019-Jul-15 00:01 207 2 gusting 8 28.9
2019-Jul-14 23:46 125 3 gusting 9 28.9
2019-Jul-14 23:30 200 2 gusting 7 29.4
2019-Jul-14 23:15 198 6 gusting 12 29.4
2019-Jul-14 23:01 145 2 gusting 11 29.4
2019-Jul-14 22:45 133 2 gusting 11 29.4
2019-Jul-14 22:30 098 4 gusting 12 29.4
2019-Jul-14 22:15 275 2 gusting 10 29.4
2019-Jul-14 22:00 153 2 gusting 9 30.0
2019-Jul-14 21:45 141 4 gusting 11 29.4
2019-Jul-14 21:30 193 4 gusting 13 30.0
2019-Jul-14 21:15 114 4 gusting 13 30.0
2019-Jul-14 21:00 143 4 gusting 12 30.6
2019-Jul-14 20:45 161 6 gusting 14 30.6
2019-Jul-14 20:30 152 3 gusting 9 31.1
2019-Jul-14 20:15 189 2 gusting 9 31.1
2019-Jul-14 20:00 112 5 gusting 13 31.7